Tracking 20721 objects as of 1-Jun-2020
HD Live streaming from Space Station
objects crossing your sky now

NOAA 16 DEB

Track NOAA 16 DEB now!
10-day predictions


NORAD ID: 42401
Int'l Code: 2000-055SV
Perigee: 761.3 km
Apogee: 861.6 km
Inclination: 98.9 °
Period: 101.0 minutes
Semi major axis: 7182 km
RCS: Unknown
Launch date: September 21, 2000
Source: United States (US)
Launch site: AIR FORCE WESTERN TEST RANGE (AFWTR)

Note: This is SATELLITE DEBRIS
aabbcc
Your satellite tracking list
Your tracking list is empty




NASA's NSSDC Master Catalog

Two Line Element Set (TLE):
1 42401U 00055SV  20151.59770918 +.00000815 +00000-0 +34981-3 0  9998
2 42401 098.9067 266.0816 0069821 063.5926 297.2398 14.26256184221181
Source of the keplerian elements: AFSPC